Location: Unspecified
(0.0000°N, 0.0000°E)
Time: 13:22:25
(UTC+00:00)

LEMUR 2 NIMBUS2000 - Visible Passes

Search period start: 11 February 2026 00:00
Search period end: 21 February 2026 00:00
Orbit: 453 x 465 km, 97.4° (Epoch: 10 February)

Date Brightness Start Highest point End Pass type
(mag) Time Alt. Az. Time Alt. Az. Time Alt. Az.
11 Feb ? 19:08:26 10° NNE 19:11:48 66° E 19:15:11 10° S visible
12 Feb ? 18:37:15 10° ENE 18:39:35 17° ESE 18:41:53 10° SE visible
13 Feb ? 19:36:50 10° NNW 19:39:57 34° W 19:43:04 10° SW visible
14 Feb ? 19:04:19 10° NNE 19:07:39 54° E 19:10:59 10° S visible
15 Feb ? 18:33:22 10° ENE 18:35:19 15° ESE 18:37:17 10° SE visible
15 Feb ? 20:06:39 10° NW 20:07:57 12° W 20:09:16 10° WSW visible
16 Feb ? 19:32:22 10° N 19:35:36 42° W 19:38:50 10° SSW visible
17 Feb ? 18:59:58 10° NNE 19:03:11 43° E 19:06:27 10° S visible
18 Feb ? 20:01:32 10° NW 20:03:25 14° W 20:05:18 10° WSW visible
19 Feb ? 19:27:39 10° N 19:30:56 52° WNW 19:34:16 10° SSW visible
20 Feb ? 18:55:20 10° NE 18:58:27 35° E 19:01:36 10° SSE visible
